Location: Corte Carpania
(45.1167°N, 11.2000°E)
Time: 01:20:55
(UTC+00:00)

Daily predictions for brighter satellites

Satellite Brightness Start Highest point End
(mag) Time Altitude Azimuth Time Altitude Azimuth Time Altitude Azimuth
SL-16 R/B 4.0 00:01:19 10° ESE 00:06:45 33° ENE 00:12:14 10° N
Lacrosse 5 2.6 00:07:00 36° SE 00:07:10 36° SE 00:11:48 10° ENE
USA 306 2.8 00:07:12 73° W 00:07:31 80° NW 00:11:42 10° NE
Cosmos 1980 3.6 00:06:07 50° SSW 00:07:40 90° W 00:13:21 10° NNE
Cosmos 371 Rocket 3.3 00:06:52 57° SW 00:07:46 73° WNW 00:12:38 10° NNE
Cosmos 2333 Rocket 4.1 00:07:16 12° W 00:11:18 23° NW 00:15:47 10° N
USA 307 2.7 00:11:14 76° WSW 00:11:32 85° NNW 00:15:44 10° NE
Meteor 2-10 Rocket 3.7 00:09:12 10° N 00:14:53 78° ENE 00:16:52 41° SSE
ATLAS CENTAUR R/B 4.1 00:13:26 10° W 00:13:49 11° W 00:13:49 11° W
Cosmos 304 Rocket 3.7 00:15:45 60° SSW 00:16:38 86° ESE 00:21:29 10° NNE
ASTEX 1 4.5 00:12:35 10° NNW 00:16:56 32° WNW 00:18:02 29° W
Cosmos 1709 Rocket 3.9 00:11:09 10° N 00:17:18 84° W 00:19:32 42° S
USA 267 3.4 00:17:02 39° S 00:18:48 48° SW 00:25:07 10° WNW
Cosmos 2084 Rocket 3.6 00:19:40 48° ESE 00:19:40 48° ESE 00:23:03 10° NE
Cosmos 2315 Rocket 4.0 00:18:32 42° S 00:20:57 90° NE 00:27:22 10° N
S3M 4.5 00:24:09 34° SW 00:26:31 50° WNW 00:32:42 10° N
USA 229 DEB 4.1 00:20:07 10° NW 00:27:19 54° WSW 00:30:40 33° S
USA 229 4.1 00:20:13 10° NW 00:27:25 55° WSW 00:30:48 33° S
Meteor 1-24 Rocket 4.2 00:25:27 32° SSE 00:27:42 51° E 00:32:58 10° NNE
COSMOS 2455 4.2 00:25:36 21° SE 00:27:55 27° ESE 00:32:51 10° NE
Cosmos 2219 Rocket 4.1 00:26:28 11° W 00:30:24 21° NW 00:34:37 10° N
Cosmos 1455 3.9 00:28:58 10° NNE 00:32:12 27° ENE 00:33:50 20° ESE
MOZ.5/SAFIR/RUBIN 5/SL-8 3.7 00:34:54 50° S 00:36:08 79° WSW 00:40:54 10° NNW
CZ-2D R/B 2.6 00:33:26 10° NNE 00:38:40 52° E 00:40:53 31° SSE
Cosmos 1455 Rocket 3.0 00:36:58 10° N 00:41:27 81° W 00:42:28 53° S
USA 308 3.4 00:40:45 34° W 00:42:17 55° NNW 00:46:25 10° NE
Cosmos 1300 3.5 00:40:41 10° NNW 00:43:56 36° W 00:43:56 36° W
Meteor 2-5 Rocket 3.7 00:50:14 37° SSW 00:52:39 86° W 00:58:22 10° N
ERBS 3.4 00:55:13 31° NW 00:55:44 33° NNW 00:58:33 10° NE
Cosmos 1975 Rocket 3.4 00:56:40 43° SW 00:57:44 54° WNW 01:02:08 10° N
CZ-4C R/B 4.0 00:51:44 10° WNW 00:57:51 26° WSW 00:59:24 25° SW
Cosmos 2237 Rocket 3.1 00:56:44 25° WSW 00:59:33 41° NW 01:04:57 10° NNE
Cosmos 1025 Rocket 3.1 01:00:08 45° SW 01:01:12 61° W 01:05:29 10° N
SME Rocket 3.4 01:03:28 42° SW 01:04:19 50° W 01:09:11 10° NNW
Resurs 1-4 Rocket 2.0 00:59:17 10° NNE 01:04:34 89° E 01:07:01 33° SSW
USA 305 4.1 01:02:25 17° W 01:05:14 38° NNW 01:09:09 10° NE
CZ-4 R/B 3.7 01:06:40 10° NNE 01:11:20 79° WNW 01:13:12 36° SSW
YAOGAN 11 4.3 01:09:44 22° SSE 01:12:32 75° ENE 01:17:03 10° N
Cosmos 1943 Rocket 2.1 01:09:31 10° NNW 01:15:11 72° WSW 01:19:23 18° SSE
Lacrosse 5 rocket 1.1 01:14:37 47° SSW 01:15:40 77° SE 01:19:42 10° NE
IDEFIX/ARIANE 42P 3.2 01:12:26 10° NNE 01:17:35 52° E 01:21:05 20° S
UNK 3.7 01:15:34 25° SSE 01:18:18 89° W 01:22:57 10° NNW
GP-B 4.4 01:14:45 10° NNW 01:18:23 25° WNW 01:19:29 23° W
ADEOS II 2.4 01:13:13 10° NNE 01:18:27 64° E 01:21:39 24° S
Cosmos 614 Rocket 4.1 01:15:00 10° NNW 01:20:13 79° ENE 01:25:27 10° SSE
Cosmos 2297 3.6 01:15:14 10° NNW 01:21:00 82° WSW 01:26:43 10° SSE
Thor Agena Rocket 4.5 01:16:56 10° N 01:21:45 37° WNW 01:24:18 23° WSW
Cosmos 1703 3.9 01:24:41 24° SSE 01:26:50 52° E 01:30:39 10° NNE
Cosmos 1544 Rocket 3.8 01:23:37 10° NNW 01:27:54 49° W 01:29:31 32° SSW
Helios 1A 3.3 01:25:18 15° SSE 01:28:46 68° ENE 01:32:59 10° N
Cosmos 2278 Rocket 3.9 01:27:12 10° WNW 01:30:18 15° W 01:30:39 15° WSW
Cosmos 2251 Rocket 4.0 01:25:58 10° NNW 01:31:12 61° ENE 01:36:25 10° SSE
Cosmos 2154 Rocket 4.0 01:25:53 10° N 01:32:16 85° W 01:37:43 14° S
EO 1 Del DPAF 3.2 01:31:10 10° NNE 01:34:40 65° ESE 01:36:19 28° S
MOS 1 Rocket 3.0 01:33:16 25° S 01:35:40 68° W 01:39:58 10° NNW
NPP 3.9 01:33:05 10° N 01:38:23 59° WNW 01:41:35 24° SW
Cosmos 2369 Rocket 2.3 01:38:42 10° NNW 01:44:20 79° ENE 01:49:55 10° SSE
Cosmos 1656 Rocket 4.0 01:42:19 10° NNW 01:47:44 67° ENE 01:53:07 10° SE
SL-16 R/B 2.7 01:44:11 21° SW 01:47:44 48° WNW 01:53:15 10° NNE
Meteor 1-28 Rocket 3.2 01:46:34 23° S 01:48:43 62° W 01:52:25 10° NNW
Lacrosse 5 2.5 01:46:10 16° WSW 01:50:01 51° NNW 01:55:01 10° NE
SL-16 R/B 2.9 01:45:54 19° SSW 01:50:08 46° W 01:56:08 10° NNW
Meteor 1-21 Rocket 4.4 01:45:44 14° S 01:50:35 69° E 01:56:08 10° NNE
AQUA 4.5 01:57:24 10° N 02:01:53 42° WNW 02:04:57 19° SW
Cosmos 1455 3.7 02:04:46 10° NW 02:07:30 20° W 02:08:35 17° WSW
Cosmos 1603 3.9 02:06:20 13° SSW 02:11:16 68° ESE 02:16:55 10° NNE
DNEPR-1 R/B 3.9 02:08:47 16° SSW 02:11:59 59° ESE 02:16:31 10° NE
COSMOS 2455 3.2 02:08:44 16° SW 02:13:28 58° NW 02:19:26 10° NNE
Cosmos 2228 3.3 02:10:51 10° NNW 02:15:04 49° W 02:18:53 12° SSW
Cosmos 407 Rocket 3.6 02:09:49 10° NNW 02:15:11 82° ENE 02:20:26 10° SSE
Cosmos 1271 Rocket 3.7 02:12:22 10° NNW 02:15:44 30° W 02:18:00 17° SW
Cosmos 2218 Rocket 4.3 02:11:02 10° N 02:17:17 72° E 02:23:34 10° SSE
CZ-2D R/B 3.6 02:14:07 10° N 02:18:22 24° WNW 02:22:12 11° WSW
Cosmos 1140 Rocket 3.5 02:18:06 10° NNW 02:23:23 82° WSW 02:28:36 10° SSE
MSX 4.1 02:20:08 10° N 02:25:48 58° WNW 02:31:10 11° SSW
Cosmos 2058 Rocket 3.4 02:25:40 10° N 02:30:04 70° E 02:34:24 10° SSE
Cosmos 2181 Rocket 4.0 02:27:08 10° S 02:33:22 88° W 02:39:34 10° N
NOSS 3-3 (A) 3.9 02:30:11 12° SW 02:35:24 77° NW 02:41:57 10° NE
NOSS 3-3 (C) 3.9 02:30:17 12° SW 02:35:30 78° NW 02:42:02 10° NE
Cosmos 864 Rocket 4.5 02:34:12 10° N 02:40:24 81° W 02:46:31 10° S
Genesis I 3.2 02:37:30 10° NW 02:41:32 66° WSW 02:45:28 10° SSE
Cosmos 1943 3.4 02:36:10 11° SW 02:41:40 65° WNW 02:47:21 10° NNE
Resurs 1-4 Rocket 4.1 02:40:48 10° NNW 02:43:39 15° WNW 02:46:30 10° W
Meteor 1-11 4.4 02:39:28 10° S 02:45:17 89° ESE 02:51:06 10° N
DEBRIS 3.5 02:36:57 10° WNW 02:46:07 81° NNE 02:49:07 10° ESE
Helios 1B rocket 2.4 02:43:25 10° N 02:47:28 70° WNW 02:51:30 10° SSW
Cosmos 1328 4.5 02:44:40 10° SSW 02:48:24 39° WNW 02:52:09 10° N
IRS-1C 4.5 02:43:58 10° NNE 02:49:18 69° ESE 02:54:36 10° S
Cosmos 1606 Rocket 4.4 02:47:00 10° NNW 02:50:53 31° W 02:54:44 10° SSW
Cosmos 1624 Rocket 4.1 02:47:16 10° SSW 02:52:36 88° WNW 02:57:56 10° NNE
ARIANE 5 R/B 3.0 02:47:41 10° NNE 02:52:43 61° ESE 02:57:39 10° S
GPS 2-04 Rocket1 4.3 02:50:50 10° SSW 02:52:58 15° S 02:55:07 10° SE
Lacrosse 5 rocket 3.1 02:51:48 10° W 02:55:07 25° NNW 02:58:36 10° NE
CBERS-1 4.3 02:51:00 10° N 02:56:00 56° WNW 03:01:00 10° SSW
IDEFIX/ARIANE 42P 4.0 02:52:41 10° N 02:56:49 24° WNW 03:00:56 10° WSW
ADEOS II 3.7 02:53:55 10° NNW 02:57:39 20° WNW 03:01:22 10° WSW
BREEZE-M DEB (TANK) 4.2 02:55:14 10° SW 02:58:27 53° SE 03:08:30 10° ENE
FENGYUN 3A 3.7 02:54:01 10° NNE 02:59:25 81° WNW 03:04:48 10° SSW
Gblst 52 Del rocket 4.3 02:54:37 10° WNW 03:00:17 83° NNE 03:05:47 10° ESE
